GFSSW_sfc_wetblb_072.txt.gz
Wetbulb
58.24 58.24 58.67 59.20 59.71 60.21 60.78 61.14 61.35 61.22 61.22 61.29 60.91 60.36 60.31 60.23 58.82 53.61 45.24 52.55 55.39 62.84 59.25 49.25 48.64 47.73 47.36 46.31 45.63 41.34 34.46 31.21 33.23 35.07 37.05 39.64 40.59 40.74 41.36 40.38 41.24 42.40 44.90 43.22 48.41
58.22 57.94 58.09 58.51 58.97 59.61 60.26 60.70 60.98 61.00 61.09 61.11 60.33 59.93 59.92 59.95 51.80 47.91 57.65 63.00 64.35 63.01 48.92 45.86 44.19 45.95 43.15 43.59 44.04 38.65 32.91 34.36 37.23 37.65 39.52 40.19 38.88 39.99 41.06 39.57 39.02 40.17 42.85 44.45 47.60
58.12 57.78 57.68 57.92 58.34 59.02 59.74 60.30 60.71 60.92 61.08 61.00 59.88 59.98 60.03 57.30 45.46 44.12 62.95 61.92 63.69 59.73 49.65 48.06 47.41 45.87 41.28 43.08 42.58 38.25 35.85 37.13 40.00 41.21 40.62 39.81 40.00 40.17 40.77 38.48 38.54 39.46 40.85 41.66 40.53
58.38 57.82 57.53 57.56 57.89 58.47 59.22 59.87 60.42 60.78 60.71 60.85 59.84 60.03 59.51 50.76 37.31 49.38 62.31 62.05 63.05 52.30 49.15 46.58 44.84 41.13 38.60 39.12 40.70 38.26 41.20 40.53 42.59 42.48 40.84 39.30 40.46 40.61 40.03 40.46 41.15 39.98 40.73 40.30 39.69
58.23 57.85 57.66 57.50 57.56 58.04 58.74 59.46 60.01 60.41 60.51 60.80 60.03 59.91 50.50 44.16 46.86 54.95 61.54 60.41 52.31 49.59 46.62 44.78 42.02 40.93 37.24 37.83 38.67 38.46 39.31 41.31 42.64 42.18 41.29 40.84 40.56 39.57 41.29 40.47 41.48 41.71 40.65 38.90 38.58
58.07 57.68 57.50 57.48 57.69 57.96 58.44 59.04 59.67 60.17 60.25 60.58 60.09 59.17 45.71 42.13 53.20 56.18 54.29 50.93 49.77 47.54 45.43 44.91 43.43 43.78 39.85 38.74 38.30 37.80 38.96 40.69 41.39 40.81 40.74 40.16 37.34 40.09 38.47 39.18 40.59 40.25 38.18 37.91 37.87
58.45 57.89 57.55 57.59 57.84 58.14 58.29 58.79 59.37 59.90 60.01 60.41 59.21 54.22 45.92 46.98 53.43 55.66 52.87 49.36 49.87 48.06 45.33 45.59 45.46 42.76 41.35 38.32 40.37 39.25 37.54 38.31 38.63 38.36 39.08 39.91 36.21 37.37 39.22 39.67 38.14 36.95 36.49 37.34 37.32
58.59 58.04 57.65 57.56 57.66 57.97 58.23 58.72 59.38 59.59 60.09 59.28 58.75 49.84 44.10 49.87 52.20 52.62 50.95 48.57 48.77 48.38 47.86 47.16 46.61 44.05 41.07 41.03 39.08 35.26 34.02 32.47 37.33 38.24 37.92 37.62 35.33 38.60 39.74 38.33 35.77 35.09 34.38 35.82 36.13
58.27 57.90 57.83 57.71 57.55 57.63 58.02 58.64 59.13 59.50 59.84 58.23 49.99 45.77 43.58 52.06 47.74 49.79 48.98 47.25 47.16 46.36 46.59 49.10 45.43 40.90 40.32 35.49 32.68 31.96 29.77 30.87 35.92 38.27 37.32 35.88 35.02 37.53 38.65 36.95 34.17 33.31 33.92 34.80 34.58
58.26 57.90 57.94 57.77 57.54 57.49 58.12 59.23 59.19 55.02 54.86 55.38 52.72 43.03 46.62 44.60 46.56 47.78 46.33 47.92 45.04 43.88 43.35 42.39 38.64 35.55 34.34 33.07 28.71 30.01 28.21 29.71 31.97 36.40 36.26 34.11 35.80 35.77 36.09 34.79 32.54 31.86 32.28 32.84 33.28
58.31 58.14 58.18 57.94 57.75 57.98 57.40 53.70 48.12 45.33 47.24 45.26 44.65 44.17 44.51 45.99 47.40 45.25 46.86 45.99 44.15 41.08 36.05 36.89 33.77 32.59 35.39 35.70 33.95 33.19 30.54 30.56 33.33 37.16 34.80 35.26 34.07 32.96 35.06 34.04 32.40 32.01 31.73 31.91 32.34
58.28 58.19 58.20 58.05 57.93 58.33 56.80 51.15 48.85 46.35 42.64 47.98 47.87 45.73 46.58 46.21 42.21 44.25 47.34 42.39 40.53 36.20 36.06 33.38 31.03 37.89 37.00 35.92 34.12 31.75 29.77 30.02 33.60 36.68 36.03 34.53 31.44 32.52 33.24 32.63 32.27 31.46 31.21 31.48 31.94
58.38 57.96 57.99 57.84 57.59 56.69 54.16 52.48 50.16 47.84 43.29 46.23 47.06 45.65 46.54 45.88 42.98 42.57 45.30 42.38 38.81 35.15 34.76 32.52 35.83 38.54 37.29 34.21 32.95 31.21 30.17 30.03 32.15 33.43 33.31 31.51 29.24 30.10 31.80 32.30 32.25 31.69 31.46 31.35 30.74
58.63 58.01 57.95 57.65 54.31 54.13 52.00 55.72 52.06 49.41 38.10 39.65 43.48 46.14 44.35 45.20 40.59 45.57 45.73 42.85 37.74 35.96 35.97 34.42 37.70 37.62 34.97 34.52 35.62 29.91 35.23 34.44 33.49 31.05 27.99 30.97 24.13 27.48 29.84 29.60 30.03 29.45 28.59 28.70 29.30
58.32 58.10 58.26 57.62 52.90 52.17 53.16 53.67 49.64 47.23 28.96 40.70 41.43 45.51 44.13 43.66 41.22 40.46 43.74 42.25 36.47 36.67 37.59 35.43 35.53 34.58 34.53 36.38 36.15 34.03 36.28 34.29 32.23 29.74 26.55 26.11 24.44 24.94 29.33 27.01 27.93 28.55 29.06 29.10 29.27
57.92 57.92 57.88 56.50 55.93 53.85 50.53 51.17 51.40 38.58 30.58 38.34 38.82 37.46 38.89 38.95 39.29 40.21 40.57 42.02 41.34 36.64 35.24 35.89 37.19 37.25 37.13 36.38 37.73 36.02 33.55 31.89 29.06 27.28 22.83 28.83 27.93 25.75 26.59 29.48 28.92 29.00 28.87 29.75 29.33
57.38 57.40 56.83 57.48 52.76 52.02 52.90 51.20 38.91 31.29 41.17 36.24 34.72 36.34 36.63 34.29 35.55 37.03 36.34 35.14 34.85 30.77 30.09 33.12 34.57 35.11 36.84 33.55 34.24 33.70 31.84 24.90 22.85 21.60 23.17 26.90 25.88 29.63 30.69 31.74 31.10 29.30 28.83 28.82 28.75
57.24 56.92 56.51 58.03 54.37 52.17 51.89 44.34 31.28 37.50 38.71 36.80 35.42 34.21 34.33 34.52 33.78 34.53 33.66 32.44 35.60 33.69 31.05 30.13 29.35 35.22 36.24 35.25 33.26 31.76 31.48 26.39 19.55 20.47 23.47 27.26 24.73 29.63 29.68 32.07 33.10 31.34 30.16 28.77 27.51
56.98 56.59 56.37 57.14 53.87 53.37 47.26 37.35 35.73 37.75 41.15 36.41 35.64 31.27 30.76 33.94 34.03 32.01 31.26 31.82 35.51 34.95 32.94 29.86 30.15 34.05 34.44 35.76 36.77 31.37 28.61 33.11 25.91 15.69 20.21 25.33 27.65 29.01 29.24 28.29 29.09 28.81 28.40 27.67 27.23
54.77 54.09 54.01 56.35 54.56 51.88 44.27 39.98 39.01 42.52 44.29 39.70 35.83 35.75 30.34 31.83 32.40 32.47 30.45 33.05 34.23 36.93 38.26 35.97 29.70 32.68 33.53 36.09 34.30 33.21 35.57 29.50 27.67 18.55 15.65 22.65 24.39 26.82 25.54 25.47 27.40 27.24 27.46 27.64 27.29
52.16 48.06 51.34 55.28 54.15 47.86 39.38 40.10 41.17 44.49 45.06 39.71 38.42 36.63 33.90 32.88 34.03 30.75 33.16 34.86 36.27 35.17 38.06 36.53 33.28 29.15 32.98 31.02 31.30 31.02 29.22 30.09 30.99 27.47 20.30 16.29 22.62 28.73 29.11 28.74 27.54 28.20 29.16 28.39 27.77
49.54 41.83 51.42 53.61 43.87 40.55 37.51 39.68 42.66 42.96 45.60 43.53 42.84 40.93 38.86 38.37 36.09 33.52 33.50 37.32 38.97 37.64 33.60 35.96 34.49 27.16 29.30 32.31 34.19 32.49 31.11 32.50 28.96 23.31 23.71 22.75 23.60 29.79 31.30 31.31 30.49 29.71 30.03 28.97 29.08
46.17 44.68 49.78 50.59 38.62 34.79 39.24 40.03 42.55 42.72 43.47 42.78 41.15 41.95 41.88 39.35 36.31 38.57 38.68 40.01 40.55 38.63 36.09 37.10 31.92 22.59 27.40 31.51 31.43 30.59 30.95 30.74 30.38 28.76 21.88 20.92 22.50 30.40 30.58 30.27 30.84 29.91 28.90 29.05 27.74
43.51 39.33 42.80 44.22 44.49 39.50 37.02 36.33 38.41 44.14 43.12 42.49 40.98 42.21 39.72 37.16 39.19 36.59 38.70 38.27 39.95 40.14 41.40 40.22 33.01 26.94 25.17 27.60 29.17 26.91 29.77 30.52 30.50 26.92 24.60 24.88 22.64 26.78 27.93 28.76 29.64 29.89 29.68 28.51 27.78
40.84 38.31 39.88 36.01 38.46 39.95 39.56 38.14 36.91 37.40 42.73 43.47 39.26 38.93 38.23 35.24 36.18 35.35 37.81 35.07 36.01 40.84 39.82 37.97 31.30 30.55 30.29 31.77 31.75 27.43 26.11 28.87 27.86 28.25 27.35 28.59 27.80 29.99 31.28 31.09 31.62 31.34 29.44 27.21 25.92
35.17 36.02 38.43 36.27 37.38 39.73 39.86 37.94 37.08 38.14 39.72 37.00 36.42 38.95 39.31 33.32 35.88 33.80 35.95 35.55 34.84 32.79 35.63 36.77 31.62 32.09 29.41 29.23 31.37 30.27 31.01 29.92 30.03 29.23 26.55 26.31 27.15 29.70 31.55 28.12 27.31 28.05 26.08 25.64 24.99
39.65 38.96 37.70 34.15 33.43 35.29 37.13 38.10 38.45 39.88 41.03 40.59 39.49 38.33 37.55 38.42 38.63 34.23 36.21 37.83 36.86 33.66 33.53 32.09 29.67 28.11 26.13 21.53 23.55 24.29 25.83 29.59 30.34 29.18 30.46 26.47 32.06 26.40 25.93 28.47 28.29 26.18 25.25 25.25 24.37

GFSSW_sfc_wetblb_075.txt.gz
Wetbulb
57.99 58.01 58.44 58.95 59.51 60.05 60.58 60.91 61.16 61.06 61.14 61.41 60.75 60.25 60.35 60.28 58.76 52.30 45.45 52.36 55.31 62.28 58.40 49.91 49.67 48.74 48.97 47.96 47.34 44.18 36.30 33.87 36.44 37.50 40.27 42.99 43.26 44.73 44.67 44.61 45.15 45.91 45.98 46.08 48.33
57.84 57.57 57.72 58.08 58.55 59.31 60.01 60.40 60.75 60.85 60.92 61.08 60.22 59.87 60.04 60.13 51.40 47.17 57.12 63.07 64.32 62.30 49.25 46.91 45.59 46.94 44.62 46.06 45.47 40.05 35.57 36.73 39.12 39.97 40.78 42.77 42.49 43.54 43.90 43.44 43.98 44.80 45.15 44.33 44.03
57.69 57.27 57.27 57.52 57.95 58.52 59.40 59.93 60.40 60.75 60.87 60.90 60.48 60.33 60.19 56.97 45.35 44.04 62.13 62.33 63.87 58.44 50.06 48.64 48.24 46.79 43.16 43.96 43.69 40.99 37.52 38.84 40.85 42.11 42.80 42.38 42.44 43.81 42.67 42.13 43.24 43.34 42.01 42.09 42.00
57.89 57.29 56.97 57.06 57.42 58.01 58.79 59.44 60.05 60.37 60.46 60.79 60.60 60.13 59.37 49.95 37.15 49.22 62.16 61.86 62.91 51.61 49.44 47.33 45.80 42.70 40.28 39.45 42.82 39.25 41.83 41.43 43.84 43.51 42.45 41.68 43.32 42.68 42.58 42.69 41.45 41.27 41.17 40.52 39.88
58.10 57.69 57.44 57.11 57.19 57.73 58.32 59.06 59.62 60.08 60.30 60.63 60.65 59.83 50.11 45.51 47.23 54.93 61.52 60.30 51.79 49.69 46.97 45.56 42.89 42.24 38.89 39.86 40.74 40.49 40.89 42.10 43.39 42.76 42.23 42.02 41.99 41.73 39.24 40.46 41.33 40.67 39.80 38.82 38.89
58.24 57.72 57.41 57.31 57.47 57.55 58.07 58.65 59.29 59.82 60.07 60.51 60.39 58.89 45.77 42.35 53.19 55.98 53.67 50.64 49.30 47.75 45.53 45.69 44.00 44.12 41.16 40.10 39.65 40.18 40.14 41.05 41.85 41.87 41.57 40.98 39.67 41.75 39.79 40.51 39.36 38.97 37.61 37.77 37.68
58.65 58.13 57.70 57.52 57.66 57.82 58.02 58.38 59.01 59.53 59.75 60.49 59.35 53.54 45.20 47.18 54.23 54.18 51.96 48.99 49.62 47.96 45.98 46.38 45.87 43.85 42.56 39.70 41.36 40.30 38.54 39.15 39.73 39.82 40.24 40.99 38.15 37.92 39.36 39.36 37.08 36.25 36.56 36.84 36.82
58.73 58.19 57.95 57.76 57.68 57.79 58.01 58.40 59.00 59.33 59.98 60.08 58.65 48.42 44.26 49.35 52.70 53.33 50.35 48.54 48.81 48.53 48.01 47.42 46.79 44.51 42.53 41.78 39.58 36.88 36.17 34.65 39.03 39.36 39.18 39.99 36.31 38.20 38.77 38.50 35.42 35.02 34.97 35.45 35.77
58.42 58.00 58.07 58.07 57.65 57.57 57.85 58.33 58.81 59.14 59.48 58.08 49.30 45.10 43.68 52.25 47.97 50.54 49.04 47.89 47.17 46.37 47.15 48.22 45.95 41.67 41.21 36.51 34.23 33.74 32.23 32.31 36.54 39.30 38.53 38.17 36.83 36.15 37.92 36.51 34.06 33.53 33.89 34.68 34.73
58.35 58.07 58.19 58.16 57.78 57.47 57.76 58.93 58.88 55.51 54.43 54.89 51.72 43.36 46.47 44.60 46.26 47.90 46.82 47.74 45.24 44.59 44.23 42.98 38.97 36.53 34.36 34.42 29.96 31.20 30.39 31.44 33.00 37.47 37.02 36.01 35.99 34.99 35.22 34.51 32.65 32.28 32.70 33.11 33.31
58.46 58.35 58.43 58.27 58.02 57.86 56.60 53.19 47.89 45.02 48.26 44.63 44.25 43.25 43.96 45.31 47.03 45.42 47.11 45.91 43.72 41.61 37.52 37.50 34.74 33.68 35.74 36.07 35.21 33.85 32.15 32.51 34.58 37.51 36.56 35.89 35.50 32.72 34.59 33.74 32.24 32.06 32.11 32.25 32.52
58.49 58.41 58.50 58.39 58.22 58.26 55.66 50.78 48.44 46.25 42.05 47.17 46.86 45.93 46.47 46.01 41.81 43.89 46.99 42.26 40.53 36.13 36.08 33.75 31.90 38.34 37.48 36.15 35.16 33.18 31.58 31.77 34.41 36.68 36.23 34.74 34.49 32.95 33.54 32.71 33.05 32.01 31.67 31.87 32.14
58.53 58.24 58.40 58.35 57.84 56.53 51.98 51.81 50.18 48.21 42.70 45.28 46.36 45.33 46.35 45.43 42.77 42.36 45.06 42.33 38.72 34.71 34.82 32.82 36.13 37.80 37.05 34.20 33.57 32.39 31.23 31.11 33.12 34.50 34.69 32.78 31.75 30.65 31.51 32.07 32.30 32.22 32.33 32.11 31.57
58.72 58.32 58.26 58.16 54.58 53.81 51.71 54.98 51.36 49.03 37.46 39.21 43.34 45.36 43.60 44.84 40.44 44.87 45.77 43.24 38.69 36.02 35.32 33.80 37.23 36.76 34.51 33.46 35.17 29.59 34.88 34.22 33.48 32.05 28.40 33.18 27.09 28.95 30.11 29.69 30.53 30.49 30.58 30.89 30.95
58.34 58.30 58.40 57.65 53.87 51.66 53.31 56.24 52.57 49.17 29.61 39.92 41.06 44.64 43.31 42.85 40.63 40.12 43.74 42.01 36.59 36.48 36.89 34.47 34.33 34.47 34.17 35.51 36.46 34.40 35.29 33.52 32.75 30.81 28.69 28.39 27.84 28.16 29.67 27.71 28.85 29.62 30.08 30.20 30.25
57.99 57.92 57.94 56.75 55.73 53.55 52.41 53.61 53.07 38.09 29.19 37.46 38.07 36.99 38.72 38.69 38.47 39.51 40.29 42.37 41.11 36.97 35.36 35.53 37.10 37.05 37.17 36.20 37.14 35.33 33.34 32.33 29.77 28.36 23.73 29.42 30.96 27.60 26.65 30.27 29.56 30.04 30.19 30.35 29.89
57.62 57.30 56.80 57.13 52.78 52.02 55.13 52.80 39.31 30.93 40.98 36.14 34.95 36.00 36.39 34.23 34.89 36.25 35.76 34.97 34.42 30.63 30.35 32.84 34.11 34.85 36.53 33.59 34.04 33.56 32.41 27.12 23.36 22.59 23.65 27.33 27.00 32.25 31.22 32.18 32.26 30.21 30.22 30.44 29.96
57.12 56.68 56.00 57.61 53.79 54.12 53.18 45.41 31.03 36.70 37.41 36.42 34.99 34.03 34.73 34.31 33.96 34.13 33.32 31.65 35.47 34.21 30.76 29.71 29.60 33.47 35.09 36.83 33.47 31.27 33.94 27.83 19.93 20.22 23.75 27.54 24.39 30.41 30.73 32.73 34.36 32.85 31.49 30.18 28.75
56.80 56.19 55.71 56.81 53.53 54.16 48.00 37.54 36.02 38.56 39.84 35.52 35.73 31.54 31.38 34.40 35.52 31.80 31.12 31.84 35.55 35.91 34.75 30.38 30.39 33.51 33.70 35.19 37.97 31.06 29.75 34.63 26.73 17.15 20.47 25.61 28.75 29.24 29.27 29.65 30.51 29.82 29.19 28.62 28.43
53.52 53.15 52.97 57.62 53.83 51.60 44.61 40.32 40.41 42.21 41.93 39.90 36.54 36.42 30.54 31.41 33.00 31.33 30.08 33.27 34.98 37.57 38.93 35.97 29.69 31.94 33.28 35.10 33.49 32.89 35.54 29.75 29.05 20.55 16.74 23.60 25.43 28.81 26.28 25.96 28.41 28.31 28.37 28.97 28.98
52.50 48.26 52.48 56.18 54.05 47.30 39.52 40.22 43.24 44.60 45.68 39.78 39.52 38.58 35.14 32.76 34.23 32.13 33.33 34.26 34.54 34.58 39.43 36.73 34.28 28.90 32.44 30.59 30.73 30.86 29.28 30.32 31.59 29.34 21.85 17.32 23.90 30.35 29.80 29.16 27.84 29.53 29.97 29.69 28.64
49.88 42.61 51.47 54.68 44.96 43.15 41.62 42.83 43.34 42.81 44.78 44.13 42.35 41.54 38.74 35.97 33.38 34.14 33.90 35.28 37.00 36.57 34.10 36.25 33.97 26.98 28.74 33.29 34.59 32.28 31.00 32.02 28.97 23.48 23.87 23.31 25.13 30.42 30.93 31.47 30.71 30.35 30.51 30.14 29.83
46.19 45.98 50.40 51.61 39.86 39.38 38.19 38.91 41.98 42.39 43.13 42.68 41.64 42.42 42.55 37.86 33.98 35.29 34.98 39.24 39.21 36.00 35.37 37.22 33.23 28.57 29.39 30.21 31.09 30.48 30.74 30.61 30.39 29.61 23.39 25.21 25.07 30.98 30.45 30.16 31.41 30.22 30.62 29.80 28.80
42.35 39.62 43.31 44.51 45.33 42.05 38.65 37.66 37.85 42.46 42.85 43.20 41.67 42.57 39.95 38.52 40.01 37.15 37.91 38.97 40.60 39.62 41.55 40.47 33.10 29.69 27.62 28.05 29.38 27.86 29.50 29.85 31.13 27.45 25.71 28.72 24.49 27.93 28.19 29.14 30.19 31.23 30.63 29.62 29.57
40.47 37.78 39.55 36.44 39.49 41.29 39.80 37.65 36.76 37.23 42.49 42.12 39.46 38.73 38.21 33.47 34.97 33.90 37.82 35.16 37.38 41.43 39.61 38.03 32.04 31.98 27.20 29.32 29.28 25.13 26.52 28.84 27.84 29.86 29.84 27.33 27.56 29.71 31.46 30.95 31.43 32.23 30.45 29.96 28.98
36.40 35.68 38.29 35.56 37.01 39.39 40.54 37.69 36.66 38.27 40.32 38.35 37.01 37.19 38.77 33.11 35.38 32.13 34.98 35.02 34.63 35.41 37.06 37.58 31.43 31.74 29.04 31.48 32.12 28.47 30.17 28.98 29.16 29.33 28.20 28.13 28.96 33.09 33.20 31.86 31.60 31.28 30.75 29.03 29.54
39.99 39.45 36.88 34.69 33.20 33.65 36.77 38.06 37.98 39.65 40.83 39.42 39.38 37.38 36.70 37.44 40.07 39.14 39.30 39.10 38.30 35.04 34.17 33.23 30.91 30.11 26.36 25.49 26.52 25.56 27.70 29.87 30.09 28.49 31.37 26.92 31.41 28.18 28.97 31.70 32.38 31.41 30.16 30.54 29.91

GFSSW_sfc_wetblb_078.txt.gz
Wetbulb
57.84 58.03 58.50 58.94 59.46 60.08 60.55 60.81 61.05 61.03 61.12 61.30 61.35 60.78 60.85 60.71 59.50 56.64 51.45 55.77 58.32 62.39 59.37 55.26 55.06 54.28 55.46 53.67 52.55 50.16 46.61 43.29 43.39 44.34 46.10 48.64 47.84 49.39 49.40 49.30 49.69 49.55 49.91 48.58 50.49
57.64 57.39 57.54 57.83 58.28 59.15 59.81 60.24 60.59 60.78 60.94 60.95 61.28 60.77 60.79 60.42 55.96 51.65 59.04 63.17 64.32 62.23 54.35 52.75 51.57 52.47 52.12 51.81 52.31 49.61 46.19 43.71 45.53 47.36 47.21 48.29 48.30 48.93 48.63 48.78 47.92 48.24 49.12 49.28 50.26
57.65 57.23 57.14 57.28 57.54 58.19 59.13 59.67 60.20 60.52 60.67 60.78 61.25 60.67 60.19 59.06 51.96 49.51 62.35 62.90 63.98 59.99 54.68 54.13 53.73 51.75 49.27 50.75 50.01 48.04 45.62 45.12 45.55 47.41 48.37 48.03 47.88 49.25 48.24 46.75 47.98 47.70 47.31 47.43 48.59
58.15 57.47 57.05 56.91 57.14 57.78 58.47 59.16 59.75 60.19 60.31 60.70 61.23 60.42 59.43 55.71 44.41 53.81 62.19 62.03 62.63 56.22 54.51 52.78 51.61 48.89 47.40 46.13 48.96 45.78 47.22 46.96 47.89 48.46 47.72 47.35 48.83 47.73 47.82 46.29 46.09 46.31 46.12 46.52 46.66
58.36 57.79 57.50 57.23 57.18 57.49 58.16 58.75 59.31 59.83 60.10 60.62 61.23 59.91 56.05 52.39 52.31 58.37 61.73 61.66 55.61 54.29 52.68 51.34 49.03 48.39 45.19 46.58 47.02 46.53 46.82 47.32 48.52 47.98 47.92 47.18 47.12 46.86 44.28 45.21 45.54 45.16 45.13 45.13 45.50
58.44 58.00 57.67 57.45 57.60 57.71 58.07 58.46 59.08 59.58 59.84 60.31 61.02 58.83 53.45 48.50 57.19 59.67 56.66 53.97 53.88 53.43 51.50 51.74 49.66 49.66 47.24 46.28 45.87 46.65 45.89 46.67 47.45 47.27 46.76 45.75 45.16 46.30 43.52 45.18 43.89 43.74 43.46 43.70 43.58
58.87 58.31 57.99 57.85 57.88 58.12 58.24 58.46 58.90 59.41 59.67 60.34 59.75 55.67 51.62 52.57 58.27 57.99 54.50 53.31 53.66 52.62 50.58 51.31 51.69 49.43 48.93 45.41 46.69 46.16 44.36 46.77 47.19 45.69 45.55 46.57 42.82 42.96 44.03 44.45 42.61 42.00 42.46 42.24 42.34
58.87 58.37 58.11 58.07 58.03 58.13 58.23 58.48 58.97 59.20 59.84 60.06 58.49 53.66 50.46 52.97 58.60 56.25 54.99 53.09 53.58 53.39 52.30 52.22 52.20 49.79 48.14 47.21 45.57 44.02 43.90 42.85 45.12 44.54 44.30 45.31 43.43 42.29 43.34 44.07 42.44 41.59 41.88 41.53 41.26
58.53 58.21 58.21 58.25 58.01 57.81 57.98 58.30 58.59 59.25 59.10 58.25 54.31 52.33 49.09 54.65 51.88 55.55 54.47 51.87 51.55 51.44 51.70 51.13 51.62 47.86 46.77 44.19 42.59 42.48 41.62 40.98 43.53 44.70 44.07 43.64 42.81 41.74 42.62 43.35 41.99 41.26 40.88 40.83 41.17
58.42 58.20 58.36 58.35 58.13 57.84 57.79 58.73 59.13 57.46 55.91 55.99 53.77 49.20 50.74 48.40 49.81 52.17 52.01 52.39 50.11 50.04 49.13 48.53 47.44 45.11 43.16 42.93 39.18 41.17 39.26 40.29 41.77 43.67 43.11 43.02 43.42 41.00 40.77 41.70 41.33 40.34 40.08 39.91 39.59
58.57 58.43 58.57 58.45 58.34 58.05 57.94 56.94 50.87 48.53 51.41 49.75 49.34 48.96 48.29 49.11 50.60 49.17 50.70 49.50 49.52 48.22 44.88 45.46 43.57 40.74 43.33 45.07 45.32 43.08 41.22 40.69 42.26 42.66 42.58 43.77 44.19 41.90 40.26 39.93 39.51 39.51 39.32 38.94 38.28
58.64 58.59 58.68 58.67 58.73 58.18 57.61 52.82 52.06 50.00 46.72 50.54 50.18 49.22 50.05 50.06 45.58 47.32 50.44 47.49 45.78 43.07 42.44 41.37 39.89 45.43 44.83 43.79 41.92 41.17 40.56 40.42 42.12 41.69 41.62 42.69 41.94 41.57 39.29 39.62 40.22 39.28 38.81 38.55 38.09
58.66 58.39 58.54 58.62 58.28 56.99 54.82 53.64 54.46 53.03 48.44 48.81 49.62 48.88 49.91 48.80 47.48 46.36 48.70 46.72 43.96 40.09 40.96 42.04 43.57 43.74 41.79 39.07 39.24 40.18 39.66 40.62 39.92 40.13 41.00 39.68 39.93 38.57 36.93 36.79 37.41 37.60 38.24 38.16 37.66
58.76 58.39 58.61 58.43 55.00 54.64 53.22 56.50 53.92 53.86 43.51 44.70 46.25 48.79 47.36 49.39 45.22 48.35 49.70 46.99 42.24 41.28 40.69 41.47 44.16 39.80 39.32 38.72 40.66 38.28 41.25 40.63 38.88 37.71 36.64 39.96 35.36 38.55 37.27 34.76 35.18 35.66 36.39 36.10 34.97
58.42 58.31 58.53 58.00 54.27 52.77 54.37 56.97 55.06 52.13 33.03 44.92 44.67 48.56 46.45 46.44 44.74 43.45 47.57 45.87 43.09 40.47 41.50 40.98 37.96 39.08 38.83 39.79 40.69 40.11 40.16 39.63 39.01 37.93 37.55 37.01 34.63 39.59 34.03 32.63 33.21 34.86 36.11 35.83 35.29
58.01 58.07 58.12 56.92 55.16 54.74 55.28 55.91 54.05 38.92 30.25 41.37 42.67 41.61 42.19 42.96 41.48 43.15 43.97 46.53 45.01 41.02 40.41 40.59 41.75 41.53 41.80 39.72 40.97 39.82 38.89 37.54 36.87 36.73 31.23 37.19 35.65 40.34 34.07 35.94 35.20 35.34 35.68 34.90 33.79
57.48 57.43 56.92 57.80 53.35 53.95 57.33 53.13 39.80 31.41 43.40 40.33 39.40 40.41 41.68 39.43 39.22 40.44 39.83 40.03 39.44 35.70 36.59 39.98 39.39 40.62 40.98 39.24 38.97 39.72 38.11 33.08 30.50 28.95 30.30 34.46 34.49 40.23 39.57 37.89 37.98 35.14 35.42 35.20 34.57
57.00 56.75 56.26 57.33 55.27 55.41 55.21 45.89 34.13 38.47 40.64 40.00 38.78 38.71 39.16 39.54 40.14 38.94 38.29 37.85 41.03 40.29 37.91 36.58 34.82 38.94 41.47 42.67 39.84 37.39 40.09 34.70 28.44 27.96 32.72 31.26 29.90 37.59 36.18 38.27 39.72 38.07 36.96 35.66 33.86
56.60 56.54 55.94 56.44 54.73 55.82 49.13 38.43 37.60 40.53 42.96 39.08 37.86 36.54 36.99 38.18 39.72 37.86 38.74 39.42 41.10 40.86 37.16 35.55 35.78 38.60 38.29 41.01 43.02 36.66 33.77 40.38 32.27 25.36 29.05 34.45 36.10 36.11 34.27 35.23 37.03 36.06 35.40 33.80 33.51
54.94 53.48 53.76 55.37 55.52 53.15 44.95 40.08 41.92 45.75 42.19 40.41 39.03 40.15 38.09 35.99 35.74 36.89 37.71 41.63 40.82 41.63 44.15 40.51 35.89 37.28 38.11 40.46 39.71 39.95 41.84 32.38 34.24 27.97 27.17 33.15 32.48 37.24 31.43 32.52 33.99 33.76 33.58 33.45 33.26
52.88 46.87 54.89 55.43 54.43 47.57 38.91 40.78 43.69 47.76 45.82 40.83 40.44 40.67 39.40 34.87 36.10 34.68 39.94 40.89 41.72 40.13 42.49 40.86 38.40 35.12 36.20 35.58 36.38 35.25 35.06 36.38 37.75 34.63 30.19 29.03 33.74 38.42 38.38 35.34 33.36 34.26 34.72 33.88 32.88
50.08 42.21 54.59 54.81 43.90 44.68 40.73 43.60 44.48 43.67 45.76 44.24 43.65 42.53 41.47 37.41 34.32 35.58 38.30 42.15 42.58 40.88 36.71 41.42 37.60 34.39 34.26 36.82 38.31 40.37 38.64 36.85 33.00 29.21 32.58 31.40 34.38 35.18 35.78 37.61 36.22 35.16 35.13 34.84 34.08
45.08 45.89 51.85 53.25 39.20 39.88 42.91 43.21 44.65 43.05 43.07 42.71 42.06 43.03 44.18 41.33 36.49 38.13 40.28 43.81 39.70 40.02 38.77 40.06 34.10 31.54 32.42 34.68 35.41 34.28 36.00 38.26 39.13 35.10 32.24 30.66 34.44 34.83 35.42 35.96 36.33 35.71 35.42 34.79 34.17
41.98 39.41 45.49 47.10 46.73 42.39 40.81 39.87 39.09 43.54 43.63 44.31 42.75 43.48 41.09 39.79 42.23 38.83 37.65 39.68 41.10 39.81 41.65 42.40 35.72 35.13 33.38 34.92 36.95 32.75 34.94 35.71 35.38 31.73 32.95 32.77 36.34 33.90 33.15 33.33 34.52 35.72 36.09 35.40 34.65
41.22 36.82 38.64 36.86 40.11 42.10 42.86 41.79 38.43 38.33 42.09 44.67 40.96 41.34 40.90 37.87 38.22 37.56 39.15 37.01 38.84 41.44 41.02 39.16 31.95 35.20 32.50 33.14 33.18 32.04 33.81 33.68 33.10 35.06 32.67 35.56 35.69 36.63 36.16 35.01 35.71 36.65 36.17 34.93 33.65
37.69 36.52 38.74 34.39 36.52 37.16 40.41 39.17 39.16 40.31 40.13 39.00 38.78 39.85 40.58 37.45 37.44 33.74 36.37 35.16 35.39 37.16 38.33 38.13 32.18 33.60 32.66 33.16 33.63 32.62 33.54 34.46 34.63 35.92 36.60 36.62 35.11 40.19 40.21 37.38 38.03 36.62 35.47 34.08 33.76
40.85 40.14 38.89 36.07 33.84 33.27 35.39 37.80 38.58 40.85 40.84 42.20 41.48 39.59 37.96 39.93 42.62 41.90 41.19 39.40 37.28 35.46 34.67 32.60 32.30 31.64 29.96 30.01 30.19 28.52 32.16 33.89 34.50 36.01 35.47 32.00 37.18 37.83 35.13 35.94 38.30 38.04 36.18 34.66 34.53

GFSSW_sfc_wetblb_084.txt.gz
Wetbulb
58.42 58.34 58.53 58.74 58.95 59.65 60.24 60.65 60.76 60.99 61.14 61.28 61.66 62.17 61.94 61.35 60.62 59.47 55.15 56.98 59.65 62.83 59.41 55.86 55.49 55.24 55.01 54.08 54.19 51.31 43.25 40.82 41.03 41.89 43.31 47.04 45.62 46.94 47.63 45.63 46.85 48.56 46.70 47.15 49.08
58.13 57.99 58.06 58.17 58.38 58.70 59.45 60.02 60.22 60.53 60.87 61.09 61.27 61.79 61.99 60.69 58.09 55.79 58.33 63.30 64.21 63.13 55.65 53.33 52.06 52.50 50.31 51.49 51.41 46.84 43.03 43.33 44.52 45.01 44.08 47.31 46.00 47.05 44.74 45.90 44.85 46.47 48.64 49.65 50.28
58.09 57.82 57.71 57.75 57.98 58.31 58.88 59.38 59.96 60.50 60.74 60.69 60.95 61.40 61.41 59.07 55.41 54.81 61.81 63.33 63.92 60.30 55.85 54.50 54.57 52.35 48.90 49.40 48.39 47.17 42.99 44.72 44.81 47.58 47.87 46.89 45.15 46.74 43.91 43.98 44.35 45.39 46.22 47.72 48.30
58.28 57.75 57.57 57.63 57.76 58.12 58.57 59.02 59.49 60.11 60.33 60.34 60.74 61.14 60.41 57.71 46.28 56.80 62.07 62.85 63.09 56.73 55.28 54.13 52.26 49.13 46.86 45.41 48.74 43.38 46.94 46.55 48.56 47.92 46.85 45.29 46.62 44.51 45.46 43.44 46.91 46.09 46.92 47.15 46.81
58.80 58.31 57.99 57.79 57.74 58.00 58.49 58.86 59.29 59.81 59.94 60.26 60.80 61.10 57.77 52.71 52.86 58.67 61.10 61.72 57.48 55.79 53.58 52.55 48.99 48.79 45.00 45.36 46.50 44.15 46.05 47.49 47.97 47.63 46.44 47.75 45.32 45.22 44.36 45.47 46.49 46.76 47.25 45.65 45.47
58.78 58.36 58.10 58.03 58.10 58.12 58.45 58.69 59.02 59.59 59.64 60.05 60.87 60.32 55.61 47.78 58.32 59.46 57.53 56.21 55.59 53.89 52.11 51.70 49.69 49.44 46.42 45.75 44.30 45.70 46.51 46.65 47.42 47.30 47.37 45.13 45.12 45.45 44.44 45.90 45.16 45.81 44.69 44.20 44.41
59.10 58.63 58.34 58.20 58.40 58.56 58.57 58.68 58.88 59.23 59.33 59.91 60.54 57.41 53.12 51.11 59.21 58.51 55.75 54.78 54.78 53.56 52.26 52.57 51.64 48.41 48.23 45.46 47.47 46.30 42.64 45.71 46.08 46.31 45.33 46.00 42.23 42.35 44.64 45.34 44.05 43.92 42.94 43.69 43.55
58.98 58.61 58.40 58.31 58.40 58.57 58.65 58.71 58.96 58.84 59.48 59.97 59.26 55.97 50.00 56.06 58.32 57.27 56.58 54.44 54.80 54.37 53.95 53.34 52.74 50.55 48.18 47.55 46.00 42.12 42.57 38.45 44.87 46.41 44.07 43.77 38.57 45.52 44.74 43.50 42.68 42.71 41.88 42.92 42.75
58.51 58.26 58.47 58.51 58.34 58.38 58.54 58.66 58.48 58.84 59.42 59.31 55.77 53.78 49.08 56.10 53.54 57.11 56.49 53.58 53.00 52.92 52.44 52.76 52.36 47.72 46.08 41.12 39.82 41.97 36.31 39.52 42.21 45.63 43.24 41.62 39.53 42.73 44.44 43.06 42.49 42.15 42.38 42.48 41.64
58.46 58.17 58.36 58.57 58.48 58.47 58.41 58.71 59.00 58.47 58.00 57.23 55.55 49.17 51.78 49.70 52.28 55.28 54.70 54.50 51.53 50.14 49.00 48.36 46.22 42.23 41.73 39.89 34.57 37.97 37.45 40.21 39.35 42.83 42.57 39.82 39.48 42.18 42.82 42.45 41.79 42.22 41.99 41.36 41.53
58.71 58.49 58.61 58.59 58.68 58.98 57.86 57.47 52.89 49.98 52.91 50.41 50.73 50.28 51.25 49.94 52.93 51.81 53.10 51.32 50.85 48.17 42.57 45.17 40.34 38.19 41.35 43.21 43.94 42.52 40.50 39.00 42.24 43.93 40.68 40.18 40.89 42.96 42.66 41.60 40.77 41.66 41.54 40.80 40.55
58.87 58.85 58.90 58.88 59.16 59.11 57.02 54.03 53.37 51.97 46.32 52.46 51.41 51.53 52.72 51.20 46.79 49.37 52.05 47.10 46.39 42.08 44.84 40.94 37.87 44.18 46.24 45.67 43.49 41.78 39.31 38.99 42.00 44.46 40.32 39.71 39.85 43.32 42.48 41.71 42.60 42.96 41.52 40.62 38.10
58.91 58.61 58.86 58.91 58.83 56.83 56.09 56.67 56.89 55.63 48.48 51.54 52.64 51.06 51.26 49.79 47.33 47.06 48.94 47.92 44.68 42.79 43.32 40.74 43.08 46.43 44.54 42.25 40.48 39.91 39.10 38.84 38.81 42.14 40.51 37.11 36.04 39.72 43.30 42.28 42.54 42.91 42.56 41.30 38.13
58.48 58.53 58.77 58.96 55.41 55.84 54.15 58.82 57.48 56.06 43.46 46.34 48.41 50.66 50.60 50.28 45.81 51.43 50.20 47.94 44.70 41.45 43.27 42.32 45.72 43.83 41.17 41.23 41.39 36.83 42.69 41.71 40.11 36.50 31.77 39.20 29.94 36.97 41.15 39.98 40.63 39.88 39.15 38.46 37.87
56.39 57.96 58.65 58.21 55.84 53.81 56.99 57.74 56.03 54.41 32.68 47.47 46.08 51.38 50.51 46.90 46.16 44.93 48.57 46.36 42.15 41.96 42.53 40.17 40.29 39.90 39.72 40.67 42.22 38.75 41.11 39.28 38.79 35.82 34.40 34.88 31.68 35.16 41.81 39.31 38.77 38.68 38.22 37.49 36.42
54.86 56.55 57.88 57.12 55.73 56.08 58.13 56.16 54.11 41.29 30.52 42.37 44.60 43.10 42.75 45.08 44.01 44.45 44.37 45.87 45.39 41.88 42.33 41.37 42.77 40.76 40.83 40.65 41.04 41.59 38.54 37.38 35.90 34.13 27.63 34.22 34.40 35.80 38.73 40.22 39.48 39.06 38.47 37.44 35.09
53.42 55.64 56.24 58.09 53.19 56.94 56.91 52.92 40.44 31.80 45.21 40.58 40.78 43.40 42.78 41.33 41.95 41.87 40.07 38.49 37.46 33.42 34.36 39.30 40.44 41.19 41.92 37.72 38.96 38.84 34.97 28.21 26.64 25.58 26.36 35.82 33.38 36.96 38.97 40.70 41.83 38.54 37.95 36.60 34.94
53.19 55.42 55.41 57.37 57.28 56.88 54.23 45.84 31.38 38.41 41.59 45.06 43.66 42.48 40.07 42.54 41.46 40.36 39.15 36.75 40.50 39.79 35.97 34.75 33.62 39.95 41.16 39.71 37.08 35.43 36.13 29.84 23.96 25.33 27.63 30.47 28.15 35.19 37.41 39.66 40.73 40.84 38.62 36.35 34.37
53.12 55.37 53.72 55.83 56.48 56.21 49.12 36.70 34.73 40.34 44.82 42.75 41.96 38.90 39.16 42.14 40.68 39.19 37.95 38.36 41.21 41.07 35.73 35.93 36.47 40.64 41.44 41.80 41.65 36.51 32.18 39.30 32.57 25.05 27.14 31.64 35.03 37.76 36.82 36.88 38.21 37.53 36.71 34.11 33.09
49.00 52.09 50.59 56.64 56.42 53.27 45.28 39.31 40.89 45.61 46.38 45.90 37.99 40.86 37.79 38.96 37.04 37.99 37.93 41.86 41.36 42.93 43.93 39.74 34.43 38.92 38.02 39.75 39.82 38.68 40.30 31.38 33.74 26.93 24.74 28.87 30.65 34.50 32.48 33.75 36.13 35.68 34.92 33.67 33.29
48.75 46.31 52.04 56.91 55.17 47.30 38.33 39.89 42.73 47.00 46.86 42.90 41.17 40.76 40.99 39.54 38.53 37.76 39.38 42.70 43.82 42.90 43.60 40.43 38.11 34.59 35.77 34.51 36.30 36.12 34.28 36.85 37.16 33.57 29.48 24.74 30.39 33.74 36.68 37.09 35.77 36.12 35.88 34.17 33.09
47.34 39.87 53.59 55.46 42.55 43.51 38.98 41.11 44.04 44.81 47.38 45.22 44.15 43.04 41.62 41.26 38.02 38.03 38.59 41.48 44.82 43.56 38.50 41.16 38.80 33.90 35.19 39.60 38.40 38.73 37.35 37.72 32.22 30.54 32.23 31.39 33.08 36.56 36.01 37.67 37.24 36.74 36.57 35.08 33.93
42.37 44.11 52.59 52.13 37.66 37.90 41.55 41.65 43.38 43.21 43.54 43.32 42.39 44.03 44.51 41.47 37.43 39.32 39.81 44.20 43.36 41.69 40.32 40.69 35.03 31.14 31.03 36.36 36.77 33.00 35.83 38.53 38.40 35.02 32.56 30.44 31.77 36.20 36.36 35.82 37.38 35.83 36.10 35.16 33.42
42.09 37.11 44.01 47.38 45.06 40.53 37.94 38.31 39.59 45.01 43.32 44.13 43.33 44.60 42.56 40.52 42.10 38.84 39.32 42.58 43.40 42.63 44.11 43.68 35.44 33.05 30.51 32.77 35.27 30.83 34.18 35.90 35.89 32.03 32.03 33.38 35.31 35.44 34.28 34.89 36.23 35.70 36.35 35.00 33.65
41.46 36.60 37.89 35.63 37.71 40.92 40.90 39.99 37.57 38.22 43.55 44.25 41.96 41.82 41.10 38.17 39.24 38.97 40.99 40.10 39.70 41.07 40.80 40.73 33.46 34.82 36.03 36.76 36.40 35.22 32.31 34.94 33.29 34.80 31.51 34.65 34.86 39.12 40.72 36.98 38.09 38.19 36.33 34.82 33.20
37.97 36.84 37.77 35.10 34.51 35.67 38.62 38.81 38.02 39.28 39.90 38.89 39.72 41.92 42.40 39.35 38.91 35.30 39.68 39.67 38.24 38.32 37.23 38.90 31.72 35.30 33.78 36.29 35.06 33.50 35.94 36.56 35.91 35.49 35.94 35.96 35.50 38.74 38.59 37.21 35.90 37.60 36.37 35.03 33.55
42.75 42.04 38.89 36.10 33.36 32.75 34.76 35.36 35.65 39.28 40.84 42.42 40.80 40.72 39.94 41.70 44.15 44.54 43.70 42.91 41.30 37.35 34.67 34.36 33.89 31.20 29.22 31.74 32.90 29.31 33.86 34.85 35.99 37.45 37.26 32.54 37.01 34.19 34.27 35.38 35.75 35.60 36.13 35.58 34.68

GFSSW_sfc_wetblb_087.txt.gz
Wetbulb
58.38 58.28 58.43 58.61 58.67 59.12 59.74 60.21 60.34 60.49 60.70 60.95 61.13 61.64 61.83 61.95 60.65 58.14 52.69 56.04 58.20 62.25 58.84 52.64 51.57 50.38 50.29 49.20 49.05 45.64 38.49 35.64 37.26 38.15 40.49 43.49 42.66 44.73 45.74 44.52 45.02 45.96 44.28 46.00 48.15
58.02 57.89 57.97 58.06 58.10 58.42 58.96 59.54 59.69 59.97 60.46 60.46 60.64 61.30 61.63 61.44 56.16 53.85 58.94 63.20 63.50 62.16 52.75 49.43 47.49 48.03 45.71 46.38 46.72 42.09 37.27 38.38 40.12 40.66 40.58 43.49 43.82 44.36 42.61 42.72 42.52 43.57 45.92 47.91 48.18
58.06 57.64 57.55 57.56 57.73 58.05 58.54 59.02 59.43 59.94 60.25 60.29 60.55 61.02 61.16 59.70 52.35 52.65 61.87 63.25 63.30 60.13 53.55 50.86 50.34 48.57 43.62 44.27 43.18 42.31 38.29 40.95 42.40 44.29 44.83 43.88 43.03 45.00 42.68 40.32 41.55 43.21 44.17 45.84 45.65
58.57 57.85 57.45 57.44 57.54 57.89 58.42 58.82 59.23 59.75 59.79 59.98 60.40 60.79 60.42 55.16 41.06 54.23 61.57 62.76 62.58 55.17 52.40 49.92 48.24 43.99 41.72 40.82 44.73 38.92 43.92 43.65 46.13 45.61 44.55 42.93 44.57 42.50 42.90 42.44 44.93 44.56 45.44 44.82 44.53
58.55 58.09 57.99 57.93 57.63 58.00 58.40 58.75 59.07 59.56 59.47 59.86 60.59 60.73 55.09 47.60 49.25 56.46 60.45 60.46 55.54 52.50 50.20 48.75 44.88 43.96 40.36 40.96 42.90 40.33 42.59 44.90 45.66 45.43 43.97 45.47 42.95 42.78 41.59 42.63 44.31 45.50 45.25 43.60 43.56
58.63 58.16 57.87 57.82 58.03 58.08 58.39 58.64 58.91 59.34 59.34 59.72 60.69 60.09 51.36 43.01 55.99 57.16 56.72 53.98 53.12 50.91 48.64 47.88 45.77 45.62 42.73 42.22 40.82 42.18 43.20 43.71 45.06 45.38 45.26 43.69 42.59 43.30 41.61 42.75 42.91 44.22 42.62 42.09 43.01
58.97 58.51 58.15 58.08 58.22 58.53 58.74 58.79 58.85 58.95 59.00 59.61 60.13 56.55 49.44 47.34 55.77 54.24 53.70 51.57 51.59 50.56 48.62 49.37 48.64 45.19 44.49 41.82 44.15 42.94 40.19 42.49 43.73 43.73 43.28 43.88 40.55 41.22 42.77 42.73 41.96 42.12 41.08 41.76 42.32
58.89 58.44 58.31 58.25 58.31 58.52 58.81 59.08 59.01 58.72 58.97 59.78 59.71 53.16 45.89 53.73 54.11 54.85 53.33 51.42 51.83 51.48 50.97 50.08 49.37 47.15 44.72 44.16 42.70 38.70 37.92 35.04 42.29 43.01 42.76 42.79 36.65 43.13 42.20 41.53 40.32 40.24 38.89 40.61 41.40
58.43 58.12 58.26 58.42 58.31 58.33 58.60 58.78 58.60 59.09 59.40 59.73 52.75 49.24 45.49 55.01 52.16 54.81 53.24 50.61 50.33 50.32 49.59 51.71 48.92 44.23 42.97 38.33 36.11 36.76 32.56 34.95 39.67 42.84 41.30 39.78 37.16 40.40 41.76 40.89 39.69 38.75 38.60 39.74 39.48
58.51 58.09 58.28 58.44 58.44 58.43 58.51 59.04 58.60 57.71 57.89 56.94 54.66 45.27 48.82 47.40 50.53 53.29 51.44 51.47 48.76 47.44 46.19 45.20 42.82 38.51 37.88 35.84 31.03 33.98 33.63 36.40 36.65 40.84 39.23 37.57 37.59 40.00 40.91 40.46 39.59 38.64 38.51 38.75 38.89
58.78 58.56 58.61 58.56 58.67 59.08 57.12 54.53 50.06 48.05 50.43 46.77 47.39 46.81 47.92 48.41 51.04 49.89 50.99 49.42 48.21 44.96 39.75 41.95 37.10 34.99 39.18 39.07 40.26 38.32 36.21 34.97 38.29 42.22 38.81 37.70 37.73 39.47 40.75 39.14 38.02 38.25 38.67 38.84 38.40
58.89 58.80 58.94 59.01 59.16 59.14 55.59 52.22 50.51 49.52 44.14 50.51 49.87 49.54 50.57 49.22 44.83 48.14 50.24 44.96 43.54 39.00 40.82 37.88 34.31 41.33 42.75 41.61 40.09 38.55 36.24 36.19 38.73 41.96 39.08 38.10 37.61 40.22 40.14 40.35 40.90 40.89 39.98 38.85 35.95
58.50 58.86 59.01 59.18 58.94 57.20 54.35 54.10 54.44 52.80 46.30 49.61 50.77 49.44 49.49 48.67 45.53 45.57 47.70 45.75 42.19 40.15 39.59 36.40 40.52 43.93 42.04 39.47 38.70 37.42 35.82 35.30 36.83 39.30 37.93 36.48 35.43 37.04 40.31 41.14 40.89 42.60 40.85 39.81 36.99
55.99 57.40 58.75 59.00 55.73 55.56 54.12 57.45 54.66 54.11 41.34 43.56 47.74 48.98 47.91 48.59 44.33 49.87 49.00 46.15 42.52 39.94 41.15 38.96 43.23 41.42 39.04 38.73 39.61 35.03 40.22 39.37 38.31 34.45 29.95 35.68 30.00 34.83 37.95 38.09 39.49 41.53 38.54 37.16 36.14
54.15 55.34 57.67 58.50 55.76 53.62 55.60 57.32 56.08 53.17 32.33 44.73 45.04 50.17 48.46 45.79 44.21 43.58 47.24 45.44 40.10 40.12 41.11 37.90 38.86 38.72 37.72 38.81 40.28 37.52 39.20 37.12 36.23 33.14 31.59 32.29 29.69 33.47 39.59 39.37 38.35 40.98 38.07 36.33 36.03
53.23 53.31 55.96 57.15 56.32 55.95 57.57 56.31 54.37 41.16 30.66 40.84 42.51 41.61 42.20 43.67 41.77 42.53 42.78 44.66 44.31 40.02 39.06 38.91 40.28 39.84 39.98 38.59 39.97 40.21 37.32 36.42 34.03 31.80 26.30 31.45 32.14 35.29 36.05 39.40 40.18 38.71 38.49 35.63 35.53
52.94 52.71 54.37 57.57 52.67 56.94 56.58 52.80 40.36 31.81 43.37 38.55 38.39 40.65 40.11 39.39 39.13 39.39 37.88 36.39 35.74 32.33 32.32 36.92 38.25 38.95 40.62 36.97 37.67 37.38 34.13 27.04 25.27 23.99 25.38 32.00 30.46 35.66 39.49 39.27 40.49 38.65 37.01 34.91 35.60
52.22 52.88 53.90 54.66 56.52 56.87 54.21 44.76 30.64 37.20 40.48 42.76 41.11 40.21 37.54 39.56 38.75 38.52 36.15 33.83 37.48 36.20 33.15 31.82 31.66 37.59 39.65 39.55 35.40 34.26 34.45 27.33 21.11 23.48 25.63 30.62 27.46 34.34 38.12 38.40 39.00 39.60 38.13 34.65 33.91
51.87 51.85 53.25 53.90 55.84 56.19 48.71 37.64 35.34 37.59 43.08 41.21 40.07 36.38 36.54 39.11 38.22 36.55 35.22 34.98 37.45 38.11 33.46 32.43 33.47 37.85 38.51 40.03 39.92 33.57 31.01 38.61 30.42 20.72 24.30 29.47 33.09 38.32 35.52 35.02 35.07 34.85 33.80 32.05 31.77
47.70 47.59 49.38 53.70 56.17 52.65 43.39 38.11 39.49 43.93 45.29 43.38 37.82 39.24 35.54 37.34 36.59 35.44 34.39 38.25 38.99 40.63 41.20 38.01 33.29 36.80 36.49 39.41 38.57 36.89 38.58 30.77 32.82 24.93 22.70 26.84 28.40 33.13 33.06 34.70 33.97 32.72 31.77 31.42 30.52
45.89 42.57 48.28 55.35 54.80 45.80 35.86 38.71 42.04 45.80 45.68 43.12 40.71 40.02 39.25 36.74 37.02 35.89 36.48 39.45 41.02 39.79 42.18 38.99 36.04 32.96 34.85 33.53 34.42 35.03 32.72 36.17 35.81 32.10 25.01 24.64 28.44 35.85 36.50 36.29 34.45 33.36 33.20 31.31 29.93
43.58 36.78 49.54 54.51 42.05 41.84 36.26 40.32 43.16 44.00 45.82 44.80 44.58 42.67 41.25 40.02 37.01 35.71 36.34 39.58 42.78 41.38 37.22 39.58 35.98 29.85 32.43 36.18 36.59 35.49 35.89 37.24 31.46 29.82 30.14 27.81 31.82 35.80 34.96 36.28 36.00 34.69 33.93 31.87 30.94
40.69 41.01 48.85 50.61 36.13 36.91 38.80 39.32 41.68 41.10 42.76 43.14 42.39 43.53 43.51 40.53 37.24 39.12 38.27 42.91 42.52 41.03 38.51 40.16 33.48 29.86 27.95 34.95 36.02 33.35 35.01 38.24 38.66 34.19 30.11 29.83 31.34 34.62 34.83 34.64 34.71 33.46 33.21 32.05 30.06
39.42 34.44 39.63 44.73 43.36 38.86 36.29 36.79 38.19 43.64 41.28 43.34 42.36 44.18 41.94 40.05 41.88 39.08 39.79 41.62 42.45 42.33 43.11 42.65 34.96 30.19 29.67 30.35 33.71 30.46 32.83 34.58 35.76 31.78 31.44 33.01 35.10 37.44 32.68 33.52 33.95 33.32 33.44 31.91 30.14
39.14 35.19 36.12 35.19 36.09 39.71 39.57 38.16 36.02 36.12 42.00 43.23 40.67 41.42 40.82 37.90 39.12 38.94 40.09 38.59 40.54 41.95 42.05 41.37 34.29 35.21 35.55 35.20 32.61 30.42 30.77 32.63 32.05 34.78 31.83 34.54 34.40 38.71 38.88 35.83 35.73 35.50 33.89 31.69 29.99
35.43 33.11 38.26 36.09 35.51 35.23 35.75 33.86 35.81 37.68 38.85 38.38 38.53 40.38 40.91 37.91 37.44 34.93 39.99 40.22 39.01 38.45 38.77 40.23 34.92 34.80 34.33 35.17 35.50 33.92 35.28 34.98 35.29 35.10 35.39 36.18 35.18 41.96 37.98 37.95 34.53 34.99 34.17 31.86 30.61
40.20 41.68 36.25 35.03 32.91 32.72 33.09 35.23 35.30 37.86 39.92 39.04 39.08 38.52 39.01 40.59 42.55 43.63 43.85 43.61 41.95 39.63 36.09 35.14 34.33 31.89 30.42 33.69 32.25 30.01 33.36 34.01 35.59 37.39 37.03 32.91 37.45 41.81 37.15 36.52 34.64 33.90 34.75 33.20 32.22

GFSSW_sfc_wetblb_093.txt.gz
Wetbulb
57.79 57.87 57.93 57.93 58.03 58.36 58.82 59.05 59.12 59.21 59.37 59.71 60.23 60.63 61.03 61.15 59.99 55.21 49.63 54.01 55.14 60.93 58.44 49.73 48.65 47.49 47.67 46.01 45.35 41.23 35.85 33.01 34.69 36.62 38.85 40.36 40.67 41.76 42.02 42.65 41.23 42.53 43.22 44.19 50.16
57.53 57.35 57.46 57.48 57.55 57.97 58.38 58.67 58.90 59.07 59.25 59.34 59.71 60.25 60.70 60.86 53.29 50.49 58.65 62.29 62.26 60.72 49.24 46.23 44.21 45.00 43.53 43.26 43.12 39.56 34.21 36.75 38.25 37.99 38.53 40.47 40.04 42.38 40.61 40.17 39.13 40.63 43.13 45.19 47.39
57.64 57.32 57.36 57.41 57.57 57.98 58.40 58.77 59.04 59.37 59.55 59.51 59.70 60.46 60.59 58.05 48.27 48.55 61.65 62.49 62.43 58.18 50.53 48.23 47.15 45.08 41.05 41.70 40.88 37.61 35.60 38.57 39.06 40.98 41.66 41.03 40.15 41.26 39.98 38.31 41.14 41.99 43.41 44.67 46.15
58.11 57.54 57.30 57.52 57.69 58.01 58.48 58.84 59.06 59.48 59.36 59.43 59.84 60.48 59.84 52.41 36.67 50.86 61.04 61.95 61.77 52.55 49.45 46.82 44.90 40.96 38.82 37.97 41.34 38.09 39.90 40.22 42.42 42.65 41.17 40.49 41.22 39.86 40.47 41.84 42.61 43.27 43.92 43.52 45.86
58.31 57.99 57.68 57.53 57.58 58.07 58.50 58.84 59.04 59.35 59.31 59.44 60.14 60.11 52.29 42.26 45.80 53.00 59.80 58.47 52.12 49.61 46.86 45.36 42.01 40.89 37.74 38.44 39.79 38.82 38.92 41.47 42.09 42.17 40.79 42.20 41.79 40.90 41.33 40.13 41.39 42.58 43.68 43.40 43.87
58.25 58.02 57.85 57.74 57.88 58.12 58.54 58.88 59.06 59.41 59.26 59.55 60.35 59.46 48.47 39.11 52.71 53.60 53.24 50.91 49.69 47.54 45.35 44.88 43.10 43.23 40.27 38.98 37.70 39.07 40.13 40.58 42.10 41.69 41.99 41.17 39.36 41.02 40.53 40.73 41.03 42.38 42.09 41.74 42.51
58.58 58.27 58.09 58.05 58.22 58.50 58.67 58.88 59.12 59.28 59.18 59.37 60.07 54.99 45.76 43.78 52.79 53.23 51.48 48.67 48.76 47.77 45.46 46.08 45.37 42.26 41.18 38.89 41.35 39.89 37.90 40.02 40.81 40.46 41.00 41.55 38.87 39.42 40.59 40.40 40.50 40.45 40.21 41.08 41.61
58.63 58.22 58.11 58.14 58.36 58.59 58.87 59.05 59.30 59.13 59.36 59.90 60.27 50.69 43.47 51.13 51.68 50.71 50.14 48.64 49.12 49.06 48.09 47.22 46.72 44.97 41.93 41.68 40.76 36.71 35.95 33.60 38.05 39.82 39.76 40.84 35.48 41.00 40.12 39.68 39.52 38.89 38.04 39.54 40.33
58.35 57.96 58.13 58.23 58.18 58.32 58.63 58.94 58.92 59.33 59.44 59.58 51.15 46.80 43.35 53.81 50.52 52.37 49.65 47.84 47.62 47.17 47.47 50.06 46.22 41.12 40.76 36.50 33.94 34.01 30.23 31.80 36.67 39.84 38.63 37.44 36.83 38.97 38.38 38.60 38.85 37.66 37.69 38.36 38.58
58.75 58.17 58.26 58.33 58.32 58.32 58.54 59.22 58.98 57.72 56.71 56.18 52.97 43.71 46.58 45.41 48.53 51.03 49.09 49.03 46.11 44.57 44.08 43.31 39.86 36.78 34.80 34.67 29.03 30.45 30.82 32.77 33.63 36.81 36.38 35.41 36.52 39.20 38.59 37.92 38.54 37.41 36.90 37.11 38.61
58.93 58.79 58.83 58.68 58.67 59.03 56.68 53.78 48.98 46.77 49.08 45.20 44.95 44.08 45.63 46.94 49.46 48.09 48.64 47.02 45.40 42.99 38.23 38.45 35.51 33.68 36.84 36.65 35.91 34.95 33.21 33.00 35.27 39.05 36.12 36.57 36.58 40.58 39.69 37.24 36.84 37.77 37.08 38.06 38.94
58.17 58.85 59.11 59.04 59.37 59.30 55.32 51.00 50.33 48.47 44.58 49.31 48.61 47.64 48.48 47.44 43.33 46.48 48.33 43.69 41.64 37.82 38.54 35.77 33.19 39.09 39.38 38.17 36.68 35.07 33.30 33.33 36.37 38.26 37.50 36.56 35.58 38.05 38.30 38.13 40.37 41.14 40.07 39.50 37.08
55.52 56.36 58.61 59.09 59.31 57.84 54.83 53.33 53.26 52.64 47.13 48.54 48.63 47.39 48.15 46.76 43.83 43.92 46.58 43.35 39.61 37.21 36.96 34.84 37.86 40.40 39.57 36.18 35.12 33.85 33.09 32.38 34.57 36.30 35.34 33.88 33.75 35.32 38.60 39.09 40.36 41.53 43.20 40.81 38.89
54.19 54.71 56.03 58.85 55.45 55.91 54.33 56.61 57.44 54.88 43.76 44.36 46.38 48.11 45.89 46.91 42.80 47.51 47.76 44.28 40.23 38.00 37.37 36.69 40.04 38.57 36.73 36.35 37.30 32.41 37.34 36.67 35.16 32.96 29.27 33.73 29.58 32.96 37.24 37.86 38.31 41.36 40.37 37.69 36.51
52.94 53.19 54.03 55.27 55.06 53.08 55.71 57.14 56.78 54.19 32.71 43.26 45.56 49.67 46.26 45.28 43.92 42.88 45.87 43.12 38.43 38.48 38.63 36.35 36.80 37.18 35.65 36.65 38.75 35.32 37.22 35.63 33.61 31.03 28.45 28.01 27.71 30.83 34.48 35.62 40.03 39.38 38.85 36.57 37.28
52.35 52.60 52.74 54.68 55.84 55.39 57.19 56.88 54.03 40.63 31.63 39.40 41.52 40.85 40.88 41.63 39.98 41.38 42.60 44.04 42.69 39.25 37.35 36.63 38.06 38.86 38.72 37.90 39.30 38.37 35.46 34.09 31.11 29.81 26.02 29.96 30.94 31.42 32.42 36.49 37.66 38.23 38.08 36.81 34.71
51.74 51.74 51.00 52.15 50.37 56.51 56.96 52.29 36.99 29.70 42.16 38.36 37.61 39.57 38.54 37.58 36.76 37.48 37.05 37.32 36.47 32.16 32.63 34.05 35.65 36.87 38.51 35.22 35.50 35.29 33.83 26.79 24.67 23.25 25.86 28.80 28.08 36.10 37.03 37.75 37.43 38.36 35.98 33.73 33.99
51.01 51.18 50.14 51.72 53.24 56.12 53.62 45.21 30.06 36.61 37.87 42.99 40.29 38.92 36.47 38.11 36.30 36.23 34.76 33.48 36.48 34.56 31.74 32.24 30.71 36.29 38.06 37.15 34.78 34.16 34.33 28.29 20.89 21.77 24.76 29.48 26.62 32.29 37.00 37.51 37.62 35.49 33.52 32.60 32.91
50.02 46.46 48.42 51.40 52.59 55.16 47.01 34.98 34.72 37.18 39.99 40.74 40.65 37.16 36.58 37.86 38.30 33.84 32.51 33.14 36.43 36.11 34.18 30.94 31.41 35.53 36.44 37.25 39.41 33.19 30.81 35.88 28.92 17.48 22.19 27.36 30.78 36.14 36.98 37.32 37.31 33.88 31.54 31.29 31.87
42.69 41.93 43.16 51.80 53.67 50.99 41.21 35.19 37.45 41.99 44.05 41.63 37.19 38.47 35.81 37.16 36.12 34.78 34.14 36.34 36.10 38.63 38.12 35.93 30.25 33.22 34.56 37.15 36.26 35.51 37.62 30.88 28.76 20.73 19.49 25.45 26.60 31.44 34.79 35.86 36.54 34.89 31.49 30.23 30.54
40.72 37.89 42.89 52.41 53.06 43.74 33.34 33.76 38.01 43.73 44.47 41.86 39.23 38.76 37.49 37.42 38.05 35.29 36.06 37.13 38.48 37.85 41.39 38.39 34.81 31.32 33.58 32.43 32.54 32.71 31.11 32.42 33.30 28.51 21.91 21.68 27.65 33.87 35.51 36.32 36.93 36.65 34.20 30.23 29.30
39.72 31.62 44.69 52.82 38.94 39.14 33.77 34.96 39.62 40.32 43.34 42.47 43.55 42.49 40.18 39.32 37.47 36.87 37.15 38.97 41.54 39.85 36.20 39.53 36.37 29.97 30.27 34.85 37.39 33.63 32.78 33.89 31.16 27.37 30.02 27.09 30.71 36.11 35.72 35.89 35.47 37.01 34.39 29.94 29.57
34.96 36.32 43.18 47.64 33.12 33.40 34.16 35.59 37.88 36.51 38.09 41.14 39.70 41.72 42.93 40.05 36.95 39.46 37.68 41.06 41.61 40.12 37.42 39.12 35.10 29.43 30.73 33.62 34.48 33.64 33.29 36.35 34.87 31.64 27.27 24.69 31.00 33.44 32.96 34.40 35.29 34.93 31.90 29.34 27.70
33.18 28.03 34.52 41.01 41.37 35.93 33.60 34.07 34.04 38.68 37.80 39.30 38.57 41.54 38.91 37.74 41.50 38.05 39.12 41.66 41.76 41.72 43.02 42.37 35.32 33.46 30.00 31.26 34.19 31.67 32.00 34.08 35.68 27.76 30.41 31.35 35.47 35.07 34.35 34.68 35.34 33.75 32.45 29.32 28.37
32.95 28.79 31.81 28.76 31.26 35.16 37.48 37.04 34.46 33.86 38.76 38.44 36.01 37.06 35.93 33.30 34.95 37.32 40.11 40.16 40.51 42.05 41.46 40.66 33.65 32.43 33.09 32.54 33.09 34.05 35.04 33.62 32.59 35.20 31.13 35.06 33.76 38.31 40.16 36.96 38.24 36.20 33.84 29.35 27.82
33.25 28.36 32.13 31.33 32.70 34.53 32.64 31.05 32.86 34.51 36.91 36.31 35.92 36.49 37.46 36.38 37.19 33.99 37.41 37.73 38.66 39.58 39.43 40.24 34.69 34.95 34.05 32.32 31.93 31.80 32.48 34.26 33.85 35.05 35.09 36.55 34.18 42.15 39.59 38.81 36.27 37.17 34.55 30.88 29.25
39.25 36.78 34.85 29.13 24.23 26.72 28.72 32.63 32.29 34.00 37.10 38.01 36.94 35.93 34.89 37.05 37.23 37.73 40.24 40.94 40.01 38.46 37.56 36.65 34.56 33.22 31.50 35.37 32.29 29.70 33.50 32.72 32.78 35.15 34.89 31.56 36.93 41.31 39.72 37.73 40.25 41.04 35.97 33.75 32.50